This demonstration page uses our WeatherBlox Daily Observations layout. Learn more.

41.55636, -103.73856

Hourly Observations for December 18, 2015

Temp ( °F °C ) Dew Point ( °F °C ) Humidity (%) Winds ( mph kmh ) Pressure ( in mb ) Visibility ( mi km ) Precip ( " mm )
12:53 am 00:53 Clear -7 -21.7 -10 -23.3 87 87 ENE 3 6 30.19 1022 10 16.0934 0 0
1:53 am 01:53 Clear -5 -20.6 -9 -22.8 83 83 NNE 5 7 30.17 1022 10 16.0934 0 0
2:53 am 02:53 Clear -3 -19.4 -7 -21.7 82 82 Calm 30.15 1021 10 16.0934 0 0
3:53 am 03:53 Clear 3 -16.1 -2 -18.9 79 79 E 5 7 30.12 1020 10 16.0934 0 0
4:53 am 04:53 Clear 1 -17.2 -5 -20.6 75 75 NNE 8 13 30.16 1021 10 16.0934 0 0
5:53 am 05:53 Clear 1 -17.2 -4 -20 79 79 Calm 30.2 1023 10 16.0934 0 0
6:53 am 06:53 Clear 0 -17.8 -5 -20.6 79 79 N 5 7 30.2 1023 10 16.0934 0 0
7:53 am 07:53 Sunny 1 -17.2 -4 -20 79 79 N 6 9 30.22 1023 10 16.0934 0 0
8:53 am 08:53 Sunny 9 -12.8 3 -16.1 77 77 Calm 30.22 1024 10 16.0934 0 0
9:53 am 09:53 Sunny 11 -11.7 4 -15.6 73 73 SSE 8 13 30.24 1024 10 16.0934 0 0
10:53 am 10:53 Sunny 16 -8.9 8 -13.3 71 71 ESE 8 13 30.21 1023 10 16.0934 0 0
11:53 am 11:53 Sunny 19 -7.2 9 -12.8 65 65 ESE 9 15 30.19 1022 10 16.0934 0 0
12:53 pm 12:53 Sunny 23 -5 14 -10 68 68 SSE 5 7 30.18 1022 10 16.0934 0 0
1:53 pm 13:53 Mostly Sunny 22 -5.6 14 -10 71 71 ESE 7 11 30.18 1022 10 16.0934 0 0
2:53 pm 14:53 Sunny 23 -5 16 -8.9 74 74 SE 5 7 30.18 1022 10 16.0934 0 0
3:53 pm 15:53 Sunny 22 -5.6 14 -10 71 71 SSE 5 7 30.18 1022 10 16.0934 0 0
4:53 pm 16:53 Clear 18 -7.8 11 -11.7 74 74 Calm 30.2 1023 10 16.0934 0 0
5:53 pm 17:53 Clear 16 -8.9 11 -11.7 80 80 ESE 6 9 30.23 1024 10 16.0934 0 0
6:53 pm 18:53 Clear 18 -7.8 12 -11.1 77 77 N 3 6 30.23 1024 10 16.0934 0 0
7:53 pm 19:53 Clear 15 -9.4 11 -11.7 84 84 ENE 3 6 30.25 1024 10 16.0934 0 0
8:53 pm 20:53 Clear 17 -8.3 12 -11.1 80 80 E 8 13 30.23 1024 10 16.0934 0 0
9:53 pm 21:53 Clear 17 -8.3 13 -10.6 84 84 ESE 5 7 30.23 1024 10 16.0934 0 0
10:53 pm 22:53 Clear 16 -8.9 12 -11.1 84 84 E 8 13 30.22 1023 10 16.0934 0 0
11:53 pm 23:53 Clear 16 -8.9 12 -11.1 84 84 E 5 7 30.2 1023 10 16.0934 0 0

Powered by AerisWeather